period_start,C,m1,H,J0,J1,J2,J3,J4,J5,JA,JB,JC,JD,JJ,JK,JN,#
2016-01-16 00:02:19,0.00,8.63,0.00,16.65,20.97,24.68,15.27,49.25,1042.20,2054.14,1388.99,1665.00,1848.97,600.11,624.50,39.20,0000 0000 0000 0000 000000
2016-01-16 00:07:21,0.01,8.63,0.00,16.64,20.97,24.68,15.30,49.42,1042.21,2054.20,1388.98,1664.98,1848.93,600.39,624.77,39.25,0000 0000 0000 0000 000000
2016-01-16 00:12:22,0.03,8.63,0.00,16.66,20.95,24.72,15.30,49.38,1042.19,2054.13,1388.91,1664.97,1848.35,599.74,624.12,39.30,0000 0000 0000 0000 000000
2016-01-16 00:17:23,0.05,8.64,0.00,16.67,20.95,24.69,15.24,49.35,1042.18,2054.16,1388.43,1664.94,1848.21,599.91,624.20,39.35,0000 0000 0000 0000 000000
2016-01-16 00:22:25,0.02,8.64,0.00,16.67,20.96,24.67,15.32,49.46,1042.14,2054.22,1388.45,1664.91,1848.05,600.14,624.32,39.40,0000 0000 0000 0000 000000
2016-01-16 00:27:26,0.04,8.64,0.00,16.67,20.96,24.73,15.34,49.57,1042.08,2054.17,1388.09,1664.52,1848.03,600.36,624.70,39.45,0000 0000 0000 0000 000000
2016-01-16 00:32:28,0.04,8.64,0.00,16.66,20.95,24.74,15.31,49.69,1042.03,2054.19,1387.98,1664.11,1848.01,600.11,624.35,39.50,0000 0000 0000 0000 000000
2016-01-16 00:37:29,0.01,8.64,0.00,16.63,20.95,24.72,15.25,49.67,1042.02,2054.30,1387.94,1664.05,1848.00,599.99,624.35,39.55,0000 0000 0000 0000 000000
2016-01-16 00:42:30,-0.00,8.64,0.00,16.64,20.95,24.71,15.28,49.67,1042.02,2054.28,1387.87,1664.01,1848.00,600.10,624.43,39.61,0000 0000 0000 0000 000000
2016-01-16 00:47:31,0.03,8.64,0.00,16.65,20.95,24.69,15.22,49.77,1042.04,2054.18,1387.36,1664.01,1847.99,600.13,624.55,39.66,0000 0000 0000 0000 000000
2016-01-16 00:52:33,0.02,8.65,0.00,16.67,20.96,24.70,15.25,49.62,1042.02,2054.23,1387.09,1664.00,1847.97,600.42,624.76,39.71,0000 0000 0000 0000 000000
2016-01-16 00:57:34,-0.01,8.65,0.00,16.66,20.97,24.71,15.33,49.80,1042.02,2054.19,1387.06,1664.00,1847.97,600.05,624.37,39.76,0000 0000 0000 0000 000000
2016-01-16 01:02:35,0.01,8.65,0.00,16.63,20.97,24.70,15.26,49.65,1042.03,2054.20,1387.01,1664.00,1847.93,599.83,624.20,39.81,0000 0000 0000 0000 000000
2016-01-16 01:07:36,0.00,8.65,0.00,16.66,20.97,24.71,15.26,49.67,1042.05,2054.11,1386.99,1663.99,1847.63,600.11,624.49,39.86,0000 0000 0000 0000 000000
2016-01-16 01:12:38,0.03,8.65,0.00,16.62,20.97,24.68,15.32,49.89,1042.02,2054.21,1386.99,1663.97,1847.26,600.50,624.84,39.91,0000 0000 0000 0000 000000
2016-01-16 01:17:39,0.01,8.65,0.00,16.64,20.97,24.70,15.29,49.82,1042.01,2054.14,1386.81,1663.97,1847.08,600.36,624.60,39.96,0000 0000 0000 0000 000000
2016-01-16 01:22:40,0.08,8.65,0.00,16.63,20.98,24.73,15.24,49.58,1042.01,2054.30,1386.23,1663.85,1847.01,599.66,624.07,40.01,0000 0000 0000 0000 000000
2016-01-16 01:27:42,0.01,8.65,0.00,16.61,20.99,24.73,15.28,49.65,1042.01,2054.22,1386.09,1663.51,1847.00,599.91,624.26,40.06,0000 0000 0000 0000 000000
2016-01-16 01:32:43,0.02,8.65,0.00,16.63,20.99,24.71,15.23,49.55,1042.02,2054.11,1386.03,1663.20,1847.00,599.69,624.08,40.11,0000 0000 0000 0000 000000
2016-01-16 01:37:44,0.01,8.65,0.00,16.61,20.99,24.75,15.20,49.52,1042.01,2054.06,1386.01,1663.07,1846.99,599.81,624.20,40.16,0000 0000 0000 0000 000000
2016-01-16 01:42:45,0.00,8.65,0.00,16.62,21.00,24.75,15.27,49.57,1042.02,2054.04,1386.00,1663.03,1846.98,599.92,624.13,40.21,0000 0000 0000 0000 000000
2016-01-16 01:47:47,-0.00,8.65,0.00,16.61,21.02,24.76,15.26,49.36,1042.02,2054.04,1386.00,1663.01,1846.98,600.03,624.36,40.26,0000 0000 0000 0000 000000
2016-01-16 01:52:48,0.00,8.65,0.00,16.60,21.02,24.75,15.31,49.56,1042.02,2054.04,1385.98,1663.00,1846.94,600.00,624.43,40.31,0000 0000 0000 0000 000000
2016-01-16 01:57:49,0.00,8.65,0.00,16.61,21.02,24.78,15.35,49.91,1042.04,2054.04,1385.99,1663.01,1846.89,600.07,624.54,40.36,0000 0000 0000 0000 000000
2016-01-16 02:02:51,0.01,8.66,0.00,16.63,21.02,24.74,15.27,49.69,1042.03,2054.05,1385.97,1663.00,1846.68,599.81,624.10,40.41,0000 0000 0000 0000 000000
2016-01-16 02:07:52,0.01,8.66,0.00,16.63,21.04,24.74,15.30,49.55,1042.02,2054.04,1385.95,1663.00,1846.29,599.81,624.34,40.47,0000 0000 0000 0000 000000
2016-01-16 02:12:53,-0.00,8.66,0.00,16.63,21.04,24.73,15.25,49.63,1042.02,2054.00,1385.94,1663.00,1846.09,599.52,623.89,40.52,0000 0000 0000 0000 000000
2016-01-16 02:17:54,0.06,8.66,0.00,16.62,21.04,24.75,15.29,49.69,1042.02,2054.01,1385.48,1662.84,1845.95,600.07,624.38,40.57,0000 0000 0000 0000 000000
2016-01-16 02:22:55,0.16,8.67,0.00,16.60,21.04,24.79,15.31,49.74,1042.02,2054.01,1384.05,1662.04,1845.10,600.21,624.61,40.62,0000 0000 0000 0000 000000
2016-01-16 02:27:57,0.03,8.67,0.00,16.60,21.04,24.76,15.31,49.67,1042.02,2054.01,1383.56,1662.00,1845.00,599.84,624.40,40.67,0000 0000 0000 0000 000000
2016-01-16 02:32:57,0.04,8.67,0.00,16.59,21.05,24.80,15.30,49.44,1042.02,2054.01,1383.07,1661.96,1844.99,599.97,624.30,40.72,0000 0000 0000 0000 000000
2016-01-16 02:37:59,0.03,8.67,0.00,16.58,21.05,24.79,15.24,49.52,1042.02,2054.00,1382.98,1661.65,1844.91,599.80,624.29,40.77,0000 0000 0000 0000 000000
2016-01-16 02:43:00,0.02,8.68,0.00,16.58,21.05,24.78,15.29,49.74,1042.01,2054.00,1382.97,1661.30,1844.71,600.37,624.91,40.82,0000 0000 0000 0000 000000
2016-01-16 02:48:01,0.04,8.68,0.00,16.59,21.05,24.79,15.34,49.63,1042.01,2054.00,1382.92,1661.19,1844.41,600.12,624.56,40.87,0000 0000 0000 0000 000000
2016-01-16 02:53:03,0.01,8.68,0.00,16.59,21.06,24.74,15.30,49.62,1042.01,2054.00,1382.90,1661.08,1844.13,600.09,624.51,40.92,0000 0000 0000 0000 000000
2016-01-16 02:58:04,0.01,8.68,0.00,16.60,21.06,24.78,15.37,49.62,1042.01,2054.00,1382.68,1661.04,1844.06,600.06,624.48,40.97,0000 0000 0000 0000 000000
2016-01-16 03:03:05,0.03,8.68,0.00,16.58,21.07,24.78,15.23,49.48,1042.01,2054.00,1382.21,1661.05,1844.04,599.82,624.44,41.02,0000 0000 0000 0000 000000
2016-01-16 03:08:07,0.01,8.68,0.00,16.57,21.07,24.76,15.25,49.46,1042.02,2054.00,1382.02,1661.03,1844.04,600.20,624.62,41.07,0000 0000 0000 0000 000000
2016-01-16 03:13:08,0.00,8.68,0.00,16.58,21.07,24.79,15.26,49.77,1042.02,2054.00,1382.04,1661.03,1844.02,600.31,624.82,41.12,0000 0000 0000 0000 000000
2016-01-16 03:18:09,0.00,8.68,0.00,16.57,21.07,24.78,15.30,49.63,1042.02,2054.00,1382.04,1661.02,1844.01,600.01,624.41,41.17,0000 0000 0000 0000 000000
2016-01-16 03:23:10,0.00,8.68,0.00,16.59,21.07,24.77,15.27,49.79,1042.03,2054.00,1382.01,1661.02,1844.01,599.87,624.40,41.22,0000 0000 0000 0000 000000
2016-01-16 03:28:11,0.00,8.68,0.00,16.59,21.07,24.77,15.24,49.79,1042.07,2054.00,1382.00,1661.01,1844.00,599.94,624.42,41.27,0000 0000 0000 0000 000000
2016-01-16 03:33:12,0.00,8.68,0.00,16.58,21.07,24.76,15.33,49.72,1042.25,2054.00,1382.00,1661.00,1844.00,600.37,625.02,41.32,0000 0000 0000 0000 000000
2016-01-16 03:38:14,0.00,8.68,0.00,16.57,21.07,24.77,15.27,49.56,1042.33,2054.00,1382.00,1661.00,1844.00,599.73,624.49,41.37,0000 0000 0000 0000 000000
2016-01-16 03:43:15,0.00,8.68,0.00,16.54,21.06,24.79,15.35,49.45,1042.29,2054.00,1381.97,1661.01,1844.00,600.21,624.86,41.42,0000 0000 0000 0000 000000
2016-01-16 03:48:16,0.00,8.68,0.00,16.58,21.05,24.74,15.31,49.51,1042.21,2054.00,1381.96,1661.00,1843.99,600.20,624.78,41.48,0000 0000 0000 0000 000000
2016-01-16 03:53:17,-0.00,8.68,0.00,16.58,21.05,24.77,15.32,49.63,1042.10,2054.01,1381.96,1661.00,1843.99,599.98,624.43,41.53,0000 0000 0000 0000 000000
2016-01-16 03:58:18,0.04,8.68,0.00,16.58,21.05,24.76,15.34,49.42,1042.08,2054.00,1381.56,1661.00,1843.99,600.24,624.72,41.58,0000 0000 0000 0000 000000
2016-01-16 04:03:20,-0.02,8.68,0.00,16.54,21.05,24.79,15.31,49.59,1042.04,2054.00,1381.35,1661.00,1843.99,599.97,624.58,41.63,0000 0000 0000 0000 000000
2016-01-16 04:08:21,0.02,8.68,0.00,16.53,21.04,24.76,15.34,49.61,1042.02,2054.00,1381.38,1661.00,1843.98,600.26,624.71,41.68,0000 0000 0000 0000 000000
2016-01-16 04:13:22,0.01,8.69,0.00,16.53,21.04,24.78,15.29,49.59,1042.02,2054.00,1381.01,1661.00,1843.97,600.14,624.59,41.73,0000 0000 0000 0000 000000
2016-01-16 04:18:23,0.00,8.69,0.00,16.52,21.04,24.72,15.33,49.52,1042.02,2054.00,1381.01,1661.00,1843.96,600.45,624.99,41.78,0000 0000 0000 0000 000000
2016-01-16 04:23:24,0.00,8.69,0.00,16.57,21.02,24.71,15.31,49.53,1042.01,2054.01,1381.01,1661.00,1843.94,600.21,624.71,41.83,0000 0000 0000 0000 000000
2016-01-16 04:28:25,0.00,8.69,0.00,16.57,21.02,24.71,15.23,49.27,1042.01,2054.00,1381.01,1661.00,1843.90,599.59,624.09,41.88,0000 0000 0000 0000 000000
2016-01-16 04:33:27,0.00,8.69,0.00,16.57,21.02,24.73,15.28,49.49,1042.01,2054.00,1381.00,1660.99,1843.83,600.31,624.71,41.93,0000 0000 0000 0000 000000
2016-01-16 04:38:28,0.01,8.69,0.00,16.54,21.00,24.65,15.29,49.38,1042.07,2054.00,1380.99,1660.98,1843.49,600.18,624.81,41.98,0000 0000 0000 0000 000000
2016-01-16 04:43:29,0.00,8.69,0.00,16.53,20.99,24.68,15.24,49.56,1042.05,2054.00,1380.99,1660.99,1843.13,599.87,624.46,42.03,0000 0000 0000 0000 000000
2016-01-16 04:48:30,0.01,8.69,0.00,16.52,20.99,24.69,15.33,49.63,1042.14,2054.00,1380.91,1660.98,1843.05,600.14,624.86,42.08,0000 0000 0000 0000 000000
2016-01-16 04:53:32,-0.00,8.69,0.00,16.53,20.97,24.66,15.25,49.36,1042.16,2054.01,1380.93,1660.98,1843.08,599.91,624.64,42.13,0000 0000 0000 0000 000000
2016-01-16 04:58:33,0.01,8.69,0.00,16.54,20.97,24.67,15.29,49.39,1042.20,2054.00,1380.87,1660.98,1843.07,600.09,624.82,42.18,0000 0000 0000 0000 000000
2016-01-16 05:03:34,0.06,8.69,0.00,16.56,20.97,24.65,15.19,49.39,1042.20,2054.02,1380.14,1660.95,1843.07,599.61,624.22,42.23,0000 0000 0000 0000 000000
2016-01-16 05:08:35,0.01,8.69,0.00,16.54,20.95,24.64,15.28,49.46,1042.42,2054.04,1379.99,1660.91,1843.03,599.80,624.56,42.28,0000 0000 0000 0000 000000
2016-01-16 05:13:37,0.03,8.69,0.00,16.55,20.95,24.68,15.30,49.53,1042.45,2054.13,1379.93,1660.70,1843.02,600.25,625.04,42.33,0000 0000 0000 0000 000000
2016-01-16 05:18:38,0.10,8.70,0.00,16.53,20.94,24.63,15.30,49.77,1042.49,2054.24,1379.17,1660.28,1843.01,600.01,624.82,42.38,0000 0000 0000 0000 000000
2016-01-16 05:23:39,-0.04,8.70,0.00,16.53,20.94,24.61,15.35,49.68,1042.43,2054.39,1379.45,1660.14,1843.00,600.20,624.97,42.44,0000 0000 0000 0000 000000
2016-01-16 05:28:41,-0.01,8.70,0.00,16.55,20.94,24.63,15.38,49.84,1042.44,2054.14,1379.34,1659.87,1842.70,600.17,625.14,42.49,0000 0000 0000 0000 000000
2016-01-16 05:33:42,1.48,8.75,0.00,16.54,20.94,24.66,15.31,49.91,1042.20,2054.06,1369.47,1654.70,1836.76,600.10,624.90,42.54,0000 0000 0000 0000 000000
2016-01-16 05:38:44,0.08,8.77,0.00,16.55,20.94,24.68,15.35,50.00,1042.02,2054.21,1367.82,1654.00,1836.00,599.87,624.39,42.59,0000 0000 0000 0000 000000
2016-01-16 05:43:45,0.08,8.78,0.00,16.57,20.94,24.66,15.31,49.80,1042.04,2054.48,1367.14,1653.96,1836.00,599.97,624.49,42.64,0000 0000 0000 0000 000000
2016-01-16 05:48:46,0.04,8.78,0.00,16.54,20.95,24.68,15.34,49.95,1042.07,2054.67,1367.00,1653.70,1835.93,599.93,624.37,42.69,0000 0000 0000 0000 000000
2016-01-16 05:53:47,0.07,8.79,0.00,16.55,20.96,24.65,15.24,49.88,1042.21,2054.67,1366.97,1653.08,1835.21,600.14,624.65,42.74,0000 0000 0000 0000 000000
2016-01-16 05:58:49,0.09,8.79,0.00,16.57,20.97,24.65,15.24,49.88,1042.19,2054.77,1366.35,1653.00,1835.00,599.75,624.39,42.79,0000 0000 0000 0000 000000
2016-01-16 06:03:50,-0.04,8.79,0.00,16.58,20.97,24.66,15.31,49.91,1042.31,2054.49,1366.01,1652.95,1834.95,599.69,624.35,42.84,0000 0000 0000 0000 000000
2016-01-16 06:08:51,0.11,8.79,0.00,16.56,20.97,24.72,15.31,50.00,1042.32,2054.44,1365.94,1652.19,1834.20,600.07,624.86,42.89,0000 0000 0000 0000 000000
2016-01-16 06:13:52,0.05,8.80,0.00,16.58,20.99,24.71,15.19,49.94,1042.10,2054.58,1365.26,1652.00,1834.00,599.61,624.15,42.94,0000 0000 0000 0000 000000
2016-01-16 06:18:53,0.02,8.80,0.00,16.58,20.99,24.69,15.30,49.88,1042.11,2054.54,1365.02,1651.99,1833.90,600.24,624.76,42.99,0000 0000 0000 0000 000000
2016-01-16 06:23:54,0.07,8.80,0.00,16.60,20.99,24.71,15.30,49.93,1042.26,2054.51,1364.99,1651.83,1833.26,599.85,624.47,43.04,0000 0000 0000 0000 000000
2016-01-16 06:28:56,0.07,8.80,0.00,16.60,21.00,24.69,15.27,49.95,1042.32,2054.48,1364.70,1651.12,1833.01,599.94,624.50,43.09,0000 0000 0000 0000 000000
2016-01-16 06:33:57,0.00,8.81,0.00,16.60,21.02,24.77,15.33,50.13,1042.31,2054.35,1364.05,1651.00,1832.99,599.85,624.53,43.14,0000 0000 0000 0000 000000
2016-01-16 06:38:58,0.03,8.81,0.00,16.59,21.02,24.74,15.28,50.05,1042.33,2054.22,1364.00,1650.92,1832.31,599.98,624.55,43.19,0000 0000 0000 0000 000000
2016-01-16 06:43:59,0.09,8.81,0.00,16.59,21.02,24.77,15.34,49.97,1042.31,2054.21,1363.73,1650.19,1832.01,600.15,624.79,43.24,0000 0000 0000 0000 000000
2016-01-16 06:49:01,0.04,8.81,0.00,16.59,21.04,24.76,15.41,50.12,1042.42,2054.22,1363.08,1650.02,1831.90,599.78,624.52,43.29,0000 0000 0000 0000 000000
2016-01-16 06:54:02,0.01,8.81,0.00,16.61,21.04,24.75,15.29,50.03,1042.44,2054.09,1363.00,1649.97,1831.16,600.11,624.76,43.35,0000 0000 0000 0000 000000
2016-01-16 06:59:03,0.07,8.82,0.00,16.63,21.05,24.76,15.21,49.92,1042.41,2054.11,1362.91,1649.35,1831.00,600.09,624.68,43.40,0000 0000 0000 0000 000000
2016-01-16 07:04:04,0.08,8.82,0.00,16.63,21.06,24.74,15.31,50.01,1042.42,2054.10,1362.18,1649.02,1830.83,600.12,624.67,43.45,0000 0000 0000 0000 000000
2016-01-16 07:09:05,0.02,8.82,0.00,16.63,21.07,24.78,15.32,49.98,1042.47,2054.10,1362.01,1648.99,1830.12,599.98,624.56,43.50,0000 0000 0000 0000 000000
2016-01-16 07:14:07,0.01,8.82,0.00,16.66,21.07,24.82,15.24,49.93,1042.48,2054.05,1361.99,1648.83,1830.00,599.92,624.46,43.55,0000 0000 0000 0000 000000
2016-01-16 07:19:08,0.10,8.83,0.00,16.67,21.09,24.81,15.31,50.00,1042.50,2054.05,1361.48,1648.16,1829.93,599.90,624.45,43.60,0000 0000 0000 0000 000000
2016-01-16 07:24:09,0.06,8.83,0.00,16.68,21.09,24.79,15.32,50.18,1042.50,2054.05,1360.95,1647.99,1829.12,599.88,624.61,43.65,0000 0000 0000 0000 000000
2016-01-16 07:29:11,0.15,8.84,0.00,16.69,21.10,24.85,15.29,50.15,1042.50,2054.10,1360.18,1647.29,1828.75,600.16,624.65,43.70,0000 0000 0000 0000 000000
2016-01-16 07:34:12,0.09,8.84,0.00,16.72,21.12,24.88,15.27,50.17,1042.50,2054.10,1359.65,1646.85,1828.03,600.25,624.70,43.75,0000 0000 0000 0000 000000
2016-01-16 07:39:13,0.11,8.85,0.00,16.71,21.12,24.82,15.37,50.05,1042.50,2054.06,1358.99,1646.06,1827.30,600.29,624.75,43.80,0000 0000 0000 0000 000000
2016-01-16 07:44:14,0.16,8.86,0.00,16.73,21.12,24.84,15.35,50.15,1042.50,2054.04,1358.15,1645.39,1826.56,600.21,624.62,43.85,0000 0000 0000 0000 000000
2016-01-16 07:49:16,0.20,8.86,0.00,16.72,21.12,24.82,15.28,50.24,1042.51,2054.04,1357.01,1644.44,1825.42,600.05,624.57,43.90,0000 0000 0000 0000 000000
2016-01-16 07:54:17,0.23,8.88,0.00,16.73,21.12,24.85,15.31,50.14,1042.53,2054.02,1355.65,1643.22,1824.08,600.06,624.35,43.95,0000 0000 0000 0000 000000
2016-01-16 07:59:18,0.22,8.89,0.00,16.73,21.12,24.81,15.32,49.95,1042.50,2054.01,1354.44,1642.06,1822.82,599.86,624.43,44.00,0000 0000 0000 0000 000000
2016-01-16 08:04:20,0.29,8.90,0.00,16.72,21.12,24.82,15.25,50.03,1042.50,2054.01,1352.78,1640.72,1821.40,600.25,624.64,44.05,0000 0000 0000 0000 000000
2016-01-16 08:09:21,0.20,8.91,0.00,16.74,21.12,24.86,15.29,49.95,1042.50,2054.02,1351.55,1639.66,1820.12,599.76,624.10,44.10,0000 0000 0000 0000 000000
2016-01-16 08:14:22,0.18,8.92,0.00,16.75,21.12,24.82,15.35,50.02,1042.50,2054.02,1350.34,1638.70,1818.99,600.23,624.56,44.15,0000 0000 0000 0000 000000
2016-01-16 08:19:24,0.17,8.93,0.00,16.75,21.12,24.81,15.25,49.93,1042.50,2054.00,1349.34,1637.75,1817.97,599.81,624.16,44.20,0000 0000 0000 0000 000000
2016-01-16 08:24:25,0.19,8.94,0.00,16.77,21.12,24.81,15.30,50.01,1042.51,2054.02,1348.28,1636.82,1816.91,600.10,624.39,44.25,0000 0000 0000 0000 000000
2016-01-16 08:29:26,0.19,8.95,0.00,16.77,21.12,24.87,15.33,50.13,1042.55,2054.03,1347.25,1635.84,1815.80,599.84,624.09,44.31,0000 0000 0000 0000 000000
2016-01-16 08:34:27,0.20,8.96,0.00,16.75,21.12,24.84,15.34,49.96,1042.61,2054.01,1346.06,1634.81,1814.66,600.06,624.45,44.36,0000 0000 0000 0000 000000
2016-01-16 08:39:28,0.22,8.97,0.00,16.75,21.11,24.84,15.26,50.07,1042.56,2054.02,1344.89,1633.75,1813.47,600.04,624.51,44.41,0000 0000 0000 0000 000000
2016-01-16 08:44:29,0.22,8.98,0.00,16.76,21.10,24.87,15.31,50.08,1042.56,2054.03,1343.67,1632.69,1812.26,599.97,624.37,44.46,0000 0000 0000 0000 000000
2016-01-16 08:49:31,0.29,9.00,0.00,16.75,21.10,24.86,15.32,49.98,1042.67,2054.02,1342.11,1631.27,1810.66,599.96,624.52,44.51,0000 0000 0000 0000 000000
2016-01-16 08:54:32,0.26,9.01,0.00,16.78,21.09,24.84,15.29,50.12,1042.59,2054.06,1340.46,1629.86,1809.18,599.96,624.33,44.56,0000 0000 0000 0000 000000
2016-01-16 08:59:33,0.16,9.02,0.00,16.80,21.09,24.85,15.28,50.14,1042.56,2054.07,1339.51,1628.97,1808.15,599.75,624.12,44.61,0000 0000 0000 0000 000000
2016-01-16 09:04:34,0.16,9.03,0.00,16.78,21.09,24.84,15.31,50.18,1042.55,2054.05,1338.64,1628.10,1807.25,599.79,624.21,44.66,0000 0000 0000 0000 000000
2016-01-16 09:09:36,0.17,9.04,0.00,16.79,21.09,24.85,15.32,50.13,1042.55,2054.09,1337.74,1627.36,1806.37,600.19,624.63,44.71,0000 0000 0000 0000 000000
2016-01-16 09:14:37,0.15,9.05,0.00,16.79,21.09,24.86,15.26,49.92,1042.54,2054.11,1336.91,1626.58,1805.49,599.76,624.28,44.76,0000 0000 0000 0000 000000
2016-01-16 09:19:39,0.14,9.05,0.00,16.81,21.09,24.89,15.33,49.98,1042.53,2054.15,1336.05,1625.82,1804.60,600.33,624.54,44.81,0000 0000 0000 0000 000000
2016-01-16 09:24:40,0.15,9.06,0.00,16.82,21.09,24.83,15.25,49.94,1042.51,2054.13,1335.16,1625.03,1803.80,600.17,624.41,44.86,0000 0000 0000 0000 000000
2016-01-16 09:29:41,0.17,9.07,0.00,16.82,21.09,24.87,15.17,49.84,1042.52,2054.17,1334.38,1624.22,1802.94,599.60,623.95,44.91,0000 0000 0000 0000 000000
2016-01-16 09:34:42,0.16,9.08,0.00,16.83,21.09,24.86,15.32,49.92,1042.51,2054.35,1333.59,1623.53,1802.06,600.01,624.22,44.96,0000 0000 0000 0000 000000
2016-01-16 09:39:43,0.14,9.09,0.00,16.84,21.09,24.85,15.26,49.81,1042.51,2054.44,1332.85,1622.82,1801.22,599.91,624.09,45.01,0000 0000 0000 0000 000000
2016-01-16 09:44:45,0.11,9.09,0.00,16.84,21.09,24.91,15.26,49.90,1042.52,2054.22,1332.04,1622.02,1800.37,599.81,624.05,45.06,0000 0000 0000 0000 000000
2016-01-16 09:49:46,0.18,9.10,0.00,16.87,21.09,24.87,15.36,49.92,1042.52,2054.37,1331.26,1621.25,1799.66,599.76,623.80,45.12,0000 0000 0000 0000 000000
2016-01-16 09:54:47,0.13,9.11,0.00,16.87,21.09,24.90,15.23,49.83,1042.51,2054.27,1330.50,1620.58,1798.89,599.84,623.95,45.17,0000 0000 0000 0000 000000
2016-01-16 09:59:49,0.08,9.11,0.00,16.88,21.10,24.92,15.30,49.89,1042.50,2054.32,1329.83,1619.93,1798.02,599.98,624.07,45.22,0000 0000 0000 0000 000000
2016-01-16 10:04:50,0.23,9.12,0.00,16.90,21.10,24.90,15.27,49.90,1042.50,2054.38,1328.75,1618.99,1797.08,599.82,624.01,45.27,0000 0000 0000 0000 000000
2016-01-16 10:09:51,0.17,9.13,0.00,16.91,21.11,24.93,15.29,49.95,1042.50,2054.64,1327.98,1618.05,1796.14,600.32,624.41,45.32,0000 0000 0000 0000 000000
2016-01-16 10:14:53,0.20,9.14,0.00,16.92,21.11,24.88,15.32,49.92,1042.50,2054.81,1327.19,1617.16,1795.13,600.50,624.49,45.37,0000 0000 0000 0000 000000
2016-01-16 10:19:54,0.18,9.15,0.00,16.93,21.12,24.92,15.19,49.85,1042.50,2054.86,1326.54,1616.31,1794.21,599.64,623.69,45.42,0000 0000 0000 0000 000000
2016-01-16 10:24:55,0.11,9.16,0.00,16.96,21.12,24.89,15.28,50.00,1042.49,2054.82,1325.90,1615.55,1793.28,600.02,623.99,45.47,0000 0000 0000 0000 000000
2016-01-16 10:29:56,0.08,9.16,0.00,16.96,21.12,24.93,15.29,50.10,1042.50,2054.45,1325.07,1614.83,1792.52,599.98,623.87,45.52,0000 0000 0000 0000 000000
2016-01-16 10:34:58,0.13,9.17,0.00,16.98,21.12,24.95,15.21,50.08,1042.49,2054.50,1324.30,1614.04,1791.88,600.38,624.24,45.57,0000 0000 0000 0000 000000
2016-01-16 10:39:59,0.13,9.18,0.00,16.99,21.12,24.94,15.30,50.01,1042.49,2054.33,1323.65,1613.30,1791.02,599.81,623.63,45.62,0000 0000 0000 0000 000000
2016-01-16 10:45:01,0.10,9.18,0.00,17.00,21.12,24.98,15.23,50.14,1042.47,2054.17,1322.89,1612.62,1790.12,600.34,624.19,45.67,0000 0000 0000 0000 000000
2016-01-16 10:50:02,0.14,9.19,0.00,17.02,21.14,24.99,15.22,50.02,1042.48,2054.17,1322.05,1611.92,1789.33,600.05,623.76,45.72,0000 0000 0000 0000 000000
2016-01-16 10:55:03,0.17,9.20,0.00,17.05,21.14,24.95,15.29,50.02,1042.49,2054.15,1321.21,1611.08,1788.51,600.04,623.85,45.77,0000 0000 0000 0000 000000
2016-01-16 11:00:05,0.14,9.20,0.00,17.05,21.14,24.97,15.29,49.89,1042.50,2054.10,1320.44,1610.37,1787.73,600.03,623.79,45.82,0000 0000 0000 0000 000000
2016-01-16 11:05:06,0.15,9.21,0.00,17.07,21.15,24.98,15.33,49.87,1042.47,2054.06,1319.70,1609.54,1786.86,600.29,624.12,45.87,0000 0000 0000 0000 000000
2016-01-16 11:10:07,0.09,9.22,0.00,17.08,21.17,24.97,15.37,49.88,1042.46,2054.04,1318.95,1608.84,1785.96,600.34,623.97,45.92,0000 0000 0000 0000 000000
2016-01-16 11:15:09,0.16,9.23,0.00,17.08,21.17,24.97,15.32,49.95,1042.45,2054.03,1318.12,1608.04,1785.06,600.04,623.67,45.97,0000 0000 0000 0000 000000
2016-01-16 11:20:10,0.17,9.23,0.00,17.09,21.17,25.01,15.26,49.81,1042.46,2054.06,1317.56,1607.17,1784.23,599.93,623.79,46.02,0000 0000 0000 0000 000000
2016-01-16 11:25:11,0.12,9.24,0.00,17.11,21.19,24.99,15.28,49.91,1042.48,2054.03,1316.99,1606.35,1783.33,600.29,623.81,46.08,0000 0000 0000 0000 000000
2016-01-16 11:30:12,0.16,9.25,0.00,17.14,21.19,25.04,15.17,49.87,1042.45,2054.02,1316.19,1605.63,1782.46,599.78,623.29,46.13,0000 0000 0000 0000 000000
2016-01-16 11:35:14,0.13,9.25,0.00,17.13,21.19,25.13,15.29,49.95,1042.21,2054.01,1315.56,1604.83,1781.61,599.91,623.30,46.18,0000 0000 0000 0000 000000
2016-01-16 11:40:15,0.21,9.26,0.00,17.14,21.21,25.06,15.28,50.17,1042.03,2054.02,1314.67,1603.69,1780.35,600.11,623.39,46.23,0000 0000 0000 0000 000000
2016-01-16 11:45:16,0.12,9.27,0.00,17.18,21.22,25.08,15.20,49.95,1042.10,2054.01,1313.94,1602.82,1779.51,599.92,623.03,46.28,0000 0000 0000 0000 000000
2016-01-16 11:50:17,0.18,9.28,0.00,17.20,21.22,25.07,15.31,49.87,1042.42,2054.00,1313.09,1601.80,1778.54,599.65,623.05,46.33,0000 0000 0000 0000 000000
2016-01-16 11:55:18,0.16,9.29,0.00,17.18,21.23,25.10,15.40,49.98,1042.49,2054.01,1312.48,1600.92,1777.50,600.23,623.53,46.38,0000 0000 0000 0000 000000
2016-01-16 12:00:19,0.20,9.30,0.00,17.19,21.24,25.12,15.18,49.92,1042.49,2054.00,1311.55,1599.90,1776.45,599.80,623.35,46.43,0000 0000 0000 0000 000000
2016-01-16 12:05:21,0.18,9.31,0.00,17.19,21.24,25.13,15.30,49.91,1042.45,2054.00,1310.48,1599.01,1775.35,600.13,623.55,46.48,0000 0000 0000 0000 000000
2016-01-16 12:10:22,0.16,9.32,0.00,17.21,21.26,25.11,15.26,49.84,1042.15,2054.00,1309.77,1598.08,1774.20,600.08,623.25,46.53,0000 0000 0000 0000 000000
2016-01-16 12:15:23,0.17,9.33,0.00,17.20,21.27,25.09,15.23,49.95,1042.21,2054.00,1309.04,1597.02,1772.96,599.87,623.11,46.58,0000 0000 0000 0000 000000
2016-01-16 12:20:25,0.18,9.34,0.00,17.24,21.27,25.10,15.25,49.84,1042.31,2054.00,1308.22,1596.11,1771.97,599.96,623.10,46.63,0000 0000 0000 0000 000000
2016-01-16 12:25:26,0.17,9.35,0.00,17.24,21.28,25.12,15.37,49.91,1042.36,2054.00,1307.52,1595.24,1771.05,600.16,623.40,46.68,0000 0000 0000 0000 000000
2016-01-16 12:30:27,0.15,9.35,0.00,17.24,21.29,25.12,15.21,49.92,1042.15,2054.00,1306.74,1594.51,1770.16,599.93,622.99,46.73,0000 0000 0000 0000 000000
2016-01-16 12:35:29,0.14,9.36,0.00,17.24,21.29,25.13,15.11,49.97,1042.18,2054.00,1305.86,1593.75,1769.29,599.53,622.64,46.78,0000 0000 0000 0000 000000
2016-01-16 12:40:30,0.15,9.37,0.00,17.23,21.30,25.15,15.24,49.91,1042.42,2054.00,1304.99,1592.91,1768.34,600.20,623.39,46.83,0000 0000 0000 0000 000000
2016-01-16 12:45:31,0.17,9.38,0.00,17.24,21.32,25.09,15.18,49.92,1042.49,2054.00,1304.10,1592.05,1767.42,599.88,623.20,46.88,0000 0000 0000 0000 000000
2016-01-16 12:50:33,0.18,9.38,0.00,17.29,21.32,25.15,15.26,49.94,1042.36,2054.00,1303.20,1591.24,1766.37,599.45,622.64,46.93,0000 0000 0000 0000 000000
2016-01-16 12:55:34,0.19,9.40,0.00,17.31,21.33,25.18,15.30,49.92,1042.48,2054.00,1302.35,1590.23,1765.31,599.93,622.96,46.99,0000 0000 0000 0000 000000